GFSSW_sfc_thetae_111.txt.gz
Theta_e
323 323 323 323 322 322 323 323 322 322 321 322 320 321 322 323 322 314 304 310 314 323 317 304 304 303 305 302 302 300 292 290 292 292 294 295 297 298 300 300 301 307 305 310 324
322 323 323 323 322 322 323 323 322 321 320 320 319 320 322 322 309 305 318 325 328 324 304 301 300 301 298 300 299 296 291 292 294 294 294 295 296 298 298 298 299 302 308 320 326
322 323 324 322 322 321 323 322 321 320 319 319 319 321 321 317 302 300 325 326 325 317 304 302 302 300 297 297 297 296 293 294 294 295 296 296 295 297 297 296 299 300 305 318 322
321 322 323 321 321 321 322 322 321 319 319 319 320 321 321 309 288 305 325 324 321 308 304 301 300 297 295 293 295 293 294 294 295 297 296 295 296 295 296 299 299 300 306 317 319
320 320 321 321 321 321 322 321 320 319 319 318 320 321 310 296 297 309 322 318 306 305 301 299 297 296 293 293 294 291 292 293 295 295 293 295 294 295 295 298 297 300 308 315 320
319 319 319 319 321 322 321 321 320 319 319 318 320 321 301 289 304 310 308 306 304 302 301 300 298 298 294 293 292 293 293 292 294 294 294 292 291 293 293 295 295 299 303 310 317
319 319 319 319 321 321 321 320 320 319 319 319 320 311 298 293 305 306 305 304 305 302 301 302 300 298 296 293 295 293 291 291 292 293 293 294 291 292 293 294 294 295 297 304 311
319 318 318 318 320 320 321 320 320 319 319 320 320 303 292 303 303 304 304 302 304 304 303 303 302 299 296 295 293 290 289 286 289 293 293 291 287 290 293 292 293 293 293 294 300
318 318 318 318 319 320 320 320 319 319 319 320 304 294 290 310 302 304 302 301 302 302 302 303 301 296 295 290 287 287 283 285 287 292 292 290 288 291 294 293 293 294 294 294 294
318 317 318 318 319 319 319 318 318 317 315 313 307 294 295 295 302 301 300 302 299 300 299 298 293 290 288 287 282 284 283 284 284 288 289 288 289 292 293 293 294 294 294 294 294
318 318 318 319 319 319 317 309 300 296 300 293 294 291 295 302 303 299 300 298 296 295 290 292 289 286 288 289 287 287 285 284 285 289 288 288 288 291 292 292 293 293 294 295 295
318 318 318 319 319 319 309 298 296 298 292 300 300 299 301 302 296 297 300 293 292 288 289 288 285 290 291 288 287 286 285 284 286 289 289 287 288 290 291 292 294 294 294 293 294
318 318 318 318 318 314 305 303 309 305 290 292 299 297 299 301 295 296 298 292 288 287 287 286 287 290 289 286 286 284 284 284 285 286 285 284 284 285 287 289 291 292 292 292 292
318 317 317 317 311 309 304 309 313 309 286 288 292 295 300 300 293 299 298 294 288 286 287 286 288 287 286 285 286 283 287 286 286 284 281 284 278 283 286 288 289 290 290 291 293
317 317 317 316 305 304 305 311 312 299 277 290 291 299 299 294 294 294 297 294 288 287 287 284 287 286 285 286 288 285 288 287 285 283 282 281 280 282 284 287 288 289 291 291 292
317 316 316 311 308 307 309 311 304 286 274 286 292 291 291 291 292 295 295 295 292 288 286 286 289 288 288 287 288 289 286 285 283 281 277 280 281 279 283 285 286 288 292 293 293
316 316 314 312 304 310 311 303 285 278 287 286 287 290 289 288 290 291 291 288 285 282 281 285 286 288 290 287 289 285 284 278 277 276 276 280 279 281 286 288 288 289 293 293 293
316 315 312 312 313 311 305 292 279 283 284 290 290 289 286 289 287 289 289 287 288 284 282 281 279 287 289 287 286 284 284 279 273 274 276 280 279 283 287 290 291 293 293 293 293
312 312 309 310 313 309 298 284 282 284 289 289 289 285 285 287 287 286 285 287 289 286 282 280 280 287 288 289 290 285 282 284 278 269 274 278 282 286 289 291 291 292 292 291 292
302 301 305 310 312 304 293 286 287 291 292 291 284 286 283 285 286 286 285 288 287 288 286 286 280 285 288 289 288 286 288 281 279 270 270 275 278 280 286 288 290 290 291 291 291
299 293 301 309 309 297 285 285 288 294 295 290 287 285 285 285 286 286 286 288 291 288 288 287 284 282 286 285 284 284 283 283 283 280 274 271 277 283 287 289 289 290 290 290 290
296 286 302 306 292 290 286 290 293 292 295 293 291 289 286 287 285 285 285 286 291 291 288 287 286 280 283 286 288 285 285 285 281 277 277 277 278 287 290 291 292 290 289 290 290
291 291 302 300 283 284 290 291 294 293 294 292 292 292 291 288 285 287 287 291 291 292 289 289 283 274 279 283 284 283 284 284 283 282 278 276 280 288 289 290 290 289 290 290 289
289 285 291 292 286 287 288 290 289 294 295 294 293 293 291 288 289 286 287 292 294 292 296 294 285 284 280 281 285 283 284 285 286 280 281 281 282 285 287 289 289 288 289 288 288
287 284 287 283 285 287 287 288 289 290 294 294 290 291 290 286 288 288 290 292 292 295 293 291 283 284 284 284 285 285 284 285 285 287 282 285 283 288 290 289 290 289 288 286 286
284 283 286 284 289 287 287 285 287 289 292 291 291 292 291 289 289 287 290 290 290 292 291 290 280 283 282 284 285 282 285 287 288 288 286 283 283 287 291 290 288 288 287 286 286
290 289 286 284 285 286 285 286 287 288 290 293 293 291 290 290 294 294 293 294 293 291 289 288 285 281 278 283 285 282 284 285 287 289 288 284 288 289 287 289 288 286 287 287 287

GFSSW_sfc_thetae_114.txt.gz
Theta_e
325 325 324 323 322 323 323 324 324 323 323 324 322 323 322 323 323 316 305 312 315 325 317 308 309 309 310 307 306 306 302 299 299 299 301 303 304 304 306 306 309 313 310 315 330
323 325 324 324 323 323 323 323 323 322 321 321 321 322 322 322 311 306 320 326 327 326 308 306 305 308 306 305 306 305 301 300 303 304 302 303 305 305 305 305 305 308 313 324 332
322 323 324 324 324 323 322 323 323 322 320 320 320 321 321 319 304 304 325 326 327 323 309 308 307 305 303 304 303 303 300 301 301 301 303 303 302 305 305 303 307 307 311 324 327
321 322 323 323 323 322 322 323 322 321 320 320 320 320 320 315 294 310 326 325 323 312 307 306 306 302 301 300 300 300 299 300 300 302 301 301 303 302 304 306 306 309 313 324 325
320 320 321 322 322 322 322 323 321 320 320 320 320 321 315 302 301 313 322 320 311 309 306 304 302 301 299 299 299 299 299 298 300 299 300 301 300 301 302 306 304 306 311 319 324
319 319 320 320 320 321 322 322 321 320 320 320 321 320 308 296 309 315 312 309 309 308 305 305 303 303 300 299 299 299 298 298 299 299 299 298 298 299 301 302 302 303 309 314 321
319 319 319 319 320 321 322 322 320 320 320 320 321 313 304 300 311 312 310 309 310 308 305 305 305 302 302 298 300 299 296 298 298 299 298 299 297 297 302 300 300 301 305 310 316
319 318 318 319 319 320 321 321 321 320 319 320 321 311 299 308 312 308 309 308 309 310 308 307 307 303 301 301 298 296 296 293 295 298 298 298 294 297 300 300 301 301 302 304 307
318 318 318 318 319 319 320 321 319 319 319 321 311 304 297 314 306 309 309 306 307 307 308 306 306 301 300 297 294 294 291 291 292 297 297 296 295 298 300 301 301 302 302 302 303
318 318 318 318 319 319 320 319 319 319 317 314 310 301 301 301 308 307 308 308 305 305 304 304 302 298 296 295 288 290 290 290 292 294 295 294 296 299 300 300 302 303 304 304 304
318 318 318 318 319 320 318 313 304 302 308 299 299 297 298 306 308 304 306 304 304 303 297 299 296 292 295 296 293 293 291 290 292 294 294 295 295 298 301 300 301 303 304 304 305
318 318 318 318 319 319 315 303 302 304 295 304 302 301 304 307 300 302 306 301 300 295 297 295 292 296 297 293 292 292 290 290 291 294 294 293 294 298 299 299 302 303 303 303 303
317 317 317 318 318 316 309 304 310 306 295 296 301 300 303 304 299 300 303 299 297 293 295 293 293 295 294 291 291 291 290 290 290 291 292 291 292 293 295 295 297 298 299 299 299
317 317 317 318 311 311 306 312 315 312 290 291 295 299 303 303 297 302 303 300 294 293 293 293 292 292 292 291 293 288 292 291 290 290 287 291 286 292 294 294 295 297 298 300 301
317 317 318 317 309 305 307 312 315 303 279 293 294 304 303 298 298 298 302 299 293 292 294 291 290 291 290 292 293 291 292 291 291 290 289 288 287 291 290 293 294 296 297 299 300
317 317 317 312 312 310 310 314 308 289 279 289 295 294 295 296 296 298 299 299 297 293 292 292 294 294 293 291 293 293 292 291 290 289 284 288 287 288 291 292 293 294 298 299 300
316 316 315 313 305 311 314 307 286 281 291 288 289 293 293 291 293 295 294 292 290 287 287 290 291 293 294 291 292 292 291 284 282 283 282 285 284 290 292 292 294 296 299 298 299
315 315 313 312 312 312 308 294 280 287 287 294 292 293 289 292 292 292 292 290 293 290 288 285 283 291 294 292 290 291 291 285 279 279 282 284 283 289 292 294 295 298 298 299 300
309 313 309 311 311 312 299 284 284 288 292 291 291 288 288 291 291 291 291 290 293 292 287 285 285 292 292 293 294 289 287 291 282 277 282 286 288 293 293 295 296 296 297 297 298
302 307 306 312 312 305 291 287 289 293 295 294 287 289 285 288 288 289 289 293 291 293 293 290 284 289 291 294 293 291 293 285 286 280 279 283 284 288 290 293 294 295 296 296 296
297 295 301 312 309 298 285 289 291 295 297 293 291 288 289 288 289 288 289 292 295 292 294 291 289 286 290 289 289 288 287 288 289 287 283 280 284 292 294 296 295 296 296 296 297
294 286 301 308 292 292 287 292 294 294 299 296 295 292 290 290 289 289 289 291 295 294 289 293 290 285 287 291 292 292 290 290 285 282 284 283 285 291 293 297 298 296 295 296 297
289 286 301 301 284 285 291 292 294 294 296 295 294 295 293 290 287 290 291 294 294 294 292 292 289 284 284 289 290 288 289 291 291 288 284 284 286 292 295 295 296 295 296 295 295
291 286 287 287 286 289 289 289 289 297 296 296 295 296 292 290 292 289 290 294 295 295 296 295 289 287 283 286 290 287 288 289 289 285 286 286 289 290 292 294 294 294 296 295 294
289 286 287 284 285 288 291 291 289 289 296 297 293 295 293 289 289 289 292 293 295 296 295 294 286 288 290 289 291 291 289 290 287 289 286 289 288 292 295 296 296 295 295 293 292
286 285 287 286 287 287 288 286 288 291 292 292 292 294 294 291 292 288 291 292 292 295 293 293 287 289 285 289 289 287 290 291 290 290 290 290 289 295 299 299 296 294 293 292 292
291 291 289 286 286 286 286 287 287 290 291 294 295 294 292 295 296 296 297 298 297 293 292 290 287 286 284 287 287 283 287 289 290 291 291 287 292 293 293 293 295 294 292 292 292

GFSSW_sfc_thetae_117.txt.gz
Theta_e
325 325 325 325 324 324 323 325 324 324 324 323 322 323 322 323 322 315 305 313 315 327 320 312 310 311 313 310 310 310 303 300 302 302 303 308 305 308 309 308 310 313 312 319 333
324 324 325 325 324 324 323 324 324 324 322 323 322 321 321 323 313 308 319 323 325 328 309 308 306 308 307 308 308 305 302 302 306 307 305 306 307 306 306 306 306 311 317 325 333
323 323 324 325 323 324 323 324 324 323 322 322 321 320 321 319 306 305 324 325 327 323 311 310 309 308 304 307 306 305 301 304 303 305 306 306 306 309 306 304 307 307 313 323 329
322 322 323 324 324 323 322 324 323 322 321 321 320 320 321 315 295 311 325 327 328 315 309 307 306 303 302 301 305 301 302 303 303 303 304 304 307 305 307 307 309 311 313 322 325
320 320 321 322 323 323 321 323 322 322 321 321 321 321 314 305 304 315 323 324 315 311 307 305 303 303 299 302 302 302 302 301 302 302 303 304 304 305 305 309 308 308 313 320 322
319 319 320 321 321 322 322 323 321 321 321 320 320 321 310 298 311 316 315 312 311 309 308 307 304 305 302 301 301 302 302 301 301 301 301 301 301 301 305 306 307 306 309 314 319
319 318 319 320 320 321 322 322 321 321 320 320 321 315 305 302 313 315 313 311 311 310 306 308 308 304 304 299 301 300 298 300 300 301 300 302 298 298 305 303 303 303 306 310 314
318 318 319 319 319 320 321 322 321 320 320 320 321 312 300 311 315 311 312 310 311 311 310 310 309 305 303 303 300 298 299 294 298 300 300 300 296 303 304 302 303 305 305 306 310
318 317 318 318 318 320 320 321 320 319 318 320 312 308 298 312 307 311 312 308 309 309 309 309 309 304 302 298 295 295 291 293 294 299 299 298 296 302 302 302 302 304 305 304 306
317 317 318 318 318 319 320 319 319 318 317 314 310 301 302 301 308 309 311 310 306 306 305 304 303 299 298 296 289 292 292 293 294 296 297 297 296 300 302 302 302 304 306 305 305
317 317 318 317 319 320 318 314 305 304 306 299 300 299 300 308 310 307 309 307 307 304 297 301 296 293 296 297 297 296 294 292 294 296 296 296 296 299 302 302 302 303 305 306 307
317 318 318 318 319 319 314 303 303 305 296 305 303 302 305 308 300 304 308 302 301 296 299 296 293 298 299 298 295 294 293 292 293 296 295 296 295 299 301 301 303 303 304 306 307
317 317 317 318 318 315 310 305 311 308 295 297 302 300 302 306 299 301 304 302 299 296 296 294 295 299 297 295 293 293 292 292 292 294 295 293 293 296 299 300 302 302 303 304 304
317 317 317 318 312 312 307 311 316 311 290 291 295 300 304 304 298 306 306 302 298 295 297 296 296 296 295 293 295 290 295 294 292 291 287 293 287 294 296 296 297 300 300 301 304
317 317 317 317 311 306 308 312 316 307 279 294 295 305 304 299 299 299 305 301 295 295 296 293 293 293 293 294 296 293 296 294 293 291 290 290 287 292 294 294 297 299 300 302 304
316 316 316 314 314 311 311 313 310 289 281 290 295 295 296 298 297 299 299 302 300 295 295 295 296 296 295 294 296 295 293 293 293 291 284 289 289 290 293 294 296 298 300 301 302
314 316 315 315 307 313 314 308 288 282 292 289 290 294 293 293 294 296 294 293 291 287 288 291 292 295 296 292 295 295 291 285 283 283 283 288 287 290 296 294 296 298 301 301 302
312 315 313 314 312 313 309 295 281 287 289 295 293 293 290 293 293 294 292 290 294 293 290 286 284 292 295 294 291 292 291 286 281 281 284 285 283 290 296 296 296 299 302 301 302
309 313 309 310 312 311 300 284 285 290 293 292 292 288 289 292 292 292 292 291 293 294 288 287 287 294 295 295 295 291 288 293 285 281 284 287 290 295 295 296 296 297 299 300 302
302 302 306 311 310 304 294 287 290 296 295 295 288 291 287 289 289 290 290 294 294 296 297 292 285 291 292 295 294 293 295 285 287 283 280 284 287 289 291 293 296 297 299 299 300
298 295 302 310 306 296 286 289 292 297 297 293 291 290 291 289 290 289 290 294 296 295 296 293 291 287 291 290 289 289 288 290 290 288 284 282 286 294 295 296 296 298 300 299 298
293 285 299 307 291 290 287 293 295 295 299 296 296 294 291 292 290 290 290 293 297 296 289 293 291 285 287 293 295 294 290 291 286 284 286 286 287 294 294 299 299 299 299 300 300
288 286 297 297 284 285 293 293 295 294 295 295 294 296 295 292 288 292 292 296 297 294 293 293 289 285 285 290 293 290 291 292 292 291 286 284 286 295 295 299 300 299 298 298 299
291 286 286 288 288 291 289 289 289 297 296 298 296 297 294 292 294 291 292 295 297 297 297 295 292 287 284 287 291 287 289 291 290 285 286 287 289 293 294 296 298 298 298 298 297
290 287 286 284 285 290 292 292 289 290 296 298 295 296 293 290 290 290 293 294 295 296 296 294 286 289 290 291 293 291 290 290 288 290 286 289 289 293 296 297 298 299 299 297 296
289 288 286 286 287 288 290 289 289 292 293 292 292 295 296 293 292 290 293 293 292 295 293 295 286 290 286 291 290 290 291 291 291 291 291 290 290 297 299 300 299 299 298 297 296
293 293 291 287 286 286 286 289 290 294 295 296 295 294 293 296 299 299 299 298 298 293 291 291 287 287 284 289 288 284 287 290 292 293 292 288 292 297 296 298 300 298 298 297 297

GFSSW_sfc_thetae_120.txt.gz
Theta_e
326 325 325 326 325 326 324 326 326 326 326 326 325 324 323 323 323 316 305 312 315 327 322 310 309 309 310 310 310 309 298 297 298 298 299 303 300 303 303 303 303 307 310 322 330
325 325 324 325 324 325 323 325 326 326 326 325 324 323 322 323 313 307 319 328 326 329 309 307 304 306 304 306 306 302 299 300 301 301 301 302 301 301 299 301 302 307 314 329 330
324 324 323 325 324 322 323 323 325 325 324 324 323 323 322 319 306 305 326 327 327 326 311 309 309 306 302 304 303 302 299 299 301 302 304 303 301 304 299 298 302 305 312 325 326
323 323 323 324 323 324 324 323 325 323 323 322 322 322 321 315 294 312 327 328 329 316 309 306 305 302 301 299 303 298 301 301 303 302 302 302 302 299 302 300 303 306 316 323 323
321 322 322 322 322 323 323 324 324 323 322 322 322 321 313 303 304 316 326 327 320 312 306 304 302 301 299 299 300 298 298 300 301 300 300 302 299 298 297 302 304 306 316 317 322
320 320 321 321 322 322 323 324 323 322 321 321 322 321 310 296 312 316 316 317 311 308 306 306 303 304 299 299 298 299 299 299 299 299 299 299 297 297 300 303 302 304 306 314 316
319 319 320 320 321 322 322 323 322 321 321 321 322 314 304 302 312 315 313 310 310 308 305 307 306 302 301 298 300 298 295 296 296 298 297 298 294 295 298 299 300 300 301 306 312
319 318 319 320 321 321 322 322 321 320 321 322 322 312 300 313 313 312 312 309 310 310 309 308 308 305 302 299 298 294 294 289 296 297 297 296 290 298 299 297 297 298 297 301 305
318 318 319 319 319 320 321 321 320 320 320 321 312 308 298 311 307 310 311 306 307 307 308 308 307 301 300 294 290 292 287 290 291 297 296 294 291 296 298 297 295 296 298 299 301
317 317 318 319 319 319 320 319 320 319 317 314 310 301 302 300 307 308 309 309 305 304 303 302 300 295 293 291 284 287 286 289 289 293 293 292 292 295 296 296 296 296 298 297 298
317 318 318 318 319 320 317 313 305 302 305 298 299 299 300 307 309 306 308 306 305 301 293 298 292 289 291 293 292 291 289 288 291 293 292 291 292 294 297 296 296 296 297 298 299
317 317 318 318 319 319 313 302 302 305 296 303 302 302 306 307 299 303 307 300 299 293 296 293 289 295 296 295 292 290 289 287 290 294 292 290 291 294 296 296 296 297 297 299 299
317 317 317 318 318 315 308 305 309 306 295 298 302 300 302 305 299 300 303 300 297 293 293 290 293 297 295 293 291 289 288 288 288 291 290 287 287 290 294 296 297 298 297 296 296
317 316 316 317 311 311 306 311 313 309 288 291 295 300 303 304 297 305 304 300 296 293 294 292 295 293 292 292 292 287 291 291 290 287 282 287 279 286 291 291 293 294 295 294 297
316 316 317 316 310 306 308 314 314 307 278 293 294 305 303 298 298 299 303 299 294 294 294 290 290 292 291 292 293 289 292 290 289 285 284 283 280 285 289 289 292 293 295 296 299
316 316 316 314 313 311 312 312 309 287 278 288 295 293 295 296 297 298 298 300 298 294 293 291 293 293 292 293 293 294 291 290 287 285 278 284 283 283 286 290 291 293 295 298 298
316 315 314 314 306 312 312 306 286 280 292 288 288 293 292 291 293 294 292 291 288 285 285 289 289 291 293 289 291 290 287 280 278 277 277 284 282 285 289 289 292 294 296 297 298
310 315 313 314 312 311 307 293 280 286 288 293 291 292 289 292 292 292 290 287 291 289 286 283 281 289 291 290 288 288 287 282 276 276 278 282 279 285 291 291 292 298 298 297 298
309 312 311 312 311 309 298 283 282 287 292 291 291 287 287 290 290 290 289 288 291 291 284 284 284 291 292 292 292 287 284 288 281 274 277 280 284 289 292 292 292 295 297 296 298
302 306 307 312 310 303 291 285 288 294 294 293 286 289 284 287 287 288 288 292 291 293 293 288 283 289 290 292 291 289 291 282 282 273 272 277 279 283 287 289 291 293 294 296 297
298 292 301 311 307 296 285 287 291 296 296 292 290 288 288 287 288 287 288 291 294 292 294 290 288 283 288 286 286 286 286 286 286 283 277 275 278 286 290 291 292 293 296 295 295
295 285 298 308 291 291 287 291 295 294 298 295 294 293 290 290 288 288 287 290 295 295 289 291 289 281 285 289 291 291 287 287 280 279 280 280 281 289 289 292 294 295 297 295 295
288 285 296 296 284 285 292 291 293 293 294 294 293 295 294 290 287 289 291 295 295 294 291 291 286 277 280 285 288 286 288 288 287 284 280 276 281 291 290 293 294 294 295 295 295
290 285 285 287 287 289 289 289 289 297 295 297 295 296 293 291 293 289 290 294 295 294 297 295 289 284 280 283 287 285 287 289 288 281 283 282 285 287 290 292 293 293 294 294 294
291 286 285 283 285 289 291 291 289 289 295 297 294 294 292 288 289 289 292 293 293 294 294 291 280 286 286 287 288 286 286 288 286 287 282 285 286 289 290 292 294 294 294 294 294
288 288 286 286 288 287 290 288 289 291 292 291 291 294 294 291 290 287 291 291 289 292 291 292 279 285 280 287 287 283 287 288 288 288 287 288 286 291 292 295 293 295 295 294 294
293 293 290 286 285 285 285 287 290 293 295 297 295 294 293 295 297 297 297 297 295 291 290 289 281 279 276 284 285 281 285 287 288 290 289 284 290 292 291 293 294 294 295 295 295

GFSSW_sfc_thetae_123.txt.gz
Theta_e
326 326 327 327 327 327 328 328 328 328 327 327 327 325 324 324 323 316 305 312 314 326 321 309 307 306 307 305 305 303 293 291 294 295 296 298 297 299 301 302 303 308 310 318 328
326 326 326 326 326 326 327 327 327 327 326 326 326 325 324 323 312 307 317 327 327 330 309 305 303 305 301 303 301 296 293 295 296 297 297 299 299 299 298 299 301 313 324 327 327
325 325 325 325 325 325 325 326 326 326 326 325 325 324 323 320 304 305 325 329 330 327 310 308 306 305 300 302 300 298 295 296 297 300 301 299 296 299 297 296 302 310 320 323 324
324 324 324 323 324 324 325 325 325 325 325 324 324 323 322 314 289 309 325 328 329 317 308 306 303 299 298 297 300 296 298 298 300 300 300 300 299 298 299 298 302 313 325 323 322
322 322 322 322 323 323 324 324 325 324 323 323 323 322 313 301 302 313 327 328 322 311 305 303 300 298 296 298 298 296 297 298 299 299 298 300 297 297 298 299 304 313 324 321 321
321 321 321 321 322 323 323 324 324 323 322 323 322 321 304 292 310 316 317 316 312 307 303 303 301 301 298 296 297 296 297 297 297 297 297 298 294 297 299 299 302 313 315 320 321
321 320 320 321 321 322 322 324 323 322 322 322 322 313 300 298 310 312 314 311 308 306 302 304 303 299 298 296 297 295 293 294 295 296 294 296 293 294 297 299 299 302 307 313 319
320 319 319 320 321 321 322 323 322 321 321 322 322 308 295 309 309 310 308 306 307 307 305 305 304 302 299 298 295 292 291 287 292 295 295 293 289 296 298 296 296 297 297 301 309
319 318 319 320 320 320 322 321 320 321 322 322 309 303 294 311 305 309 308 304 304 303 304 305 303 298 296 291 288 288 284 286 289 295 294 292 289 294 295 294 293 293 294 296 300
318 318 319 319 319 320 320 320 320 320 317 314 310 295 299 298 305 307 307 306 302 301 299 299 296 291 290 287 282 285 285 286 288 291 292 290 290 292 294 293 293 293 294 294 297
318 318 319 319 319 320 317 313 304 301 304 298 297 297 298 303 307 303 306 303 301 296 290 294 289 286 289 291 290 289 286 286 288 292 290 289 290 292 293 293 293 294 294 294 295
317 318 318 319 319 319 312 300 300 302 295 301 301 300 304 304 298 301 305 297 296 289 291 289 286 291 293 292 290 288 286 284 289 292 290 288 289 291 293 294 294 295 294 295 295
317 317 318 318 318 314 305 302 307 304 293 297 300 299 300 303 297 298 301 298 293 290 288 287 290 294 292 289 288 286 286 285 287 289 288 286 285 287 291 293 294 294 295 295 295
317 317 317 317 312 309 303 308 309 304 288 290 294 298 302 302 296 303 303 299 294 290 290 289 292 292 289 289 289 285 289 289 288 284 280 285 278 284 288 290 291 293 293 294 296
316 317 317 316 310 304 305 311 310 301 276 292 294 304 302 296 297 297 302 297 291 291 290 287 289 288 288 290 290 287 290 288 287 283 281 280 279 283 286 288 290 291 292 292 295
316 316 316 313 311 309 310 313 303 286 276 288 294 294 294 295 295 297 296 298 296 292 290 289 291 291 290 290 291 291 288 288 285 282 277 280 280 280 284 288 289 290 291 295 296
316 315 313 313 306 311 311 303 285 279 290 286 288 292 291 290 291 292 290 289 287 284 283 286 287 289 291 288 290 289 284 277 276 276 276 281 279 283 287 289 290 292 293 294 295
315 315 312 312 312 310 305 290 278 285 286 291 290 291 287 291 290 290 289 287 289 287 284 282 280 287 290 289 287 286 285 279 274 274 276 279 278 284 289 288 290 293 294 294 294
315 313 310 311 311 309 297 283 281 285 291 288 290 286 286 289 290 288 286 288 289 288 283 282 282 288 290 290 291 286 283 287 279 270 275 278 282 288 290 288 290 292 294 294 295
305 308 307 312 311 304 291 284 286 291 292 291 284 287 283 286 286 286 285 289 288 290 289 287 282 287 288 290 289 287 289 281 280 270 270 275 278 281 285 288 288 292 292 293 295
299 294 300 311 308 297 285 286 289 293 294 290 287 286 286 286 286 286 286 288 291 291 290 288 285 283 287 285 284 285 283 284 284 280 275 272 277 284 287 289 289 290 293 293 294
295 285 298 306 291 292 286 288 293 293 295 293 292 290 288 288 286 286 286 289 293 293 288 289 286 280 283 287 289 287 286 286 280 277 278 278 281 286 287 290 290 290 294 294 295
286 285 295 298 284 286 290 290 291 292 293 292 291 292 292 289 285 289 289 294 293 292 290 291 283 274 279 284 286 284 285 286 285 282 279 275 281 289 288 288 290 291 293 294 293
289 283 286 287 287 289 288 287 288 294 294 295 293 294 291 289 290 287 289 294 294 293 296 295 286 282 279 281 286 284 286 287 286 280 281 281 284 286 288 290 290 291 292 292 293
289 284 285 283 284 289 291 289 287 288 293 295 292 293 290 286 287 288 291 291 293 294 293 292 279 283 282 285 285 283 284 286 285 286 281 285 284 288 288 290 291 292 292 292 293
286 285 286 285 288 289 290 288 288 290 290 290 289 292 291 288 288 285 290 289 288 291 290 290 277 283 278 285 285 281 285 286 287 287 286 286 284 289 289 292 290 292 293 293 293
291 292 289 286 285 285 286 287 289 292 293 294 293 292 291 293 295 294 295 294 293 291 289 288 282 277 272 283 284 281 285 285 287 289 288 284 289 289 287 290 291 292 294 294 295

GFSSW_sfc_thetae_129.txt.gz
Theta_e
319 319 327 327 327 328 330 330 330 329 329 329 327 326 325 324 323 315 314 321 322 326 321 308 308 308 307 306 304 300 293 289 291 292 293 295 295 296 299 300 304 308 314 317 324
320 321 323 327 326 327 329 329 329 329 328 327 326 325 325 324 311 306 320 332 333 328 308 304 303 304 301 302 301 295 292 293 295 295 296 296 296 297 299 301 304 309 315 321 327
320 320 320 326 325 327 328 328 328 327 327 326 326 325 324 320 301 302 323 330 332 326 310 307 305 303 300 301 299 297 293 294 295 297 298 297 295 296 298 295 304 309 316 319 324
320 320 320 325 325 326 327 327 327 327 326 325 325 324 323 310 292 303 325 328 329 316 309 307 303 299 295 296 300 293 297 295 297 298 298 296 296 294 296 298 300 315 322 320 321
320 319 320 318 324 325 326 327 326 326 325 325 324 323 311 300 301 309 325 327 321 308 303 306 300 300 296 295 297 295 295 296 295 297 296 296 294 294 295 295 309 319 320 320 320
319 319 319 318 323 324 325 326 326 325 325 325 324 321 305 292 307 314 318 315 310 305 302 302 301 303 301 299 295 296 295 295 295 295 295 294 292 295 296 299 313 318 318 319 319
319 319 318 319 323 323 324 324 326 325 325 325 324 312 301 297 309 314 313 308 308 303 300 303 304 300 303 299 303 294 291 293 293 294 293 293 291 293 294 302 312 316 317 317 319
319 318 318 319 322 322 323 323 324 324 324 324 323 308 297 307 310 311 307 304 306 303 302 304 304 300 297 297 295 292 290 288 292 293 292 293 290 293 294 301 307 311 312 315 317
318 318 318 318 321 321 322 322 323 324 324 323 310 302 294 312 305 307 304 303 304 301 301 303 300 295 293 290 287 286 283 285 289 293 291 290 288 291 293 295 299 304 309 312 314
318 318 318 318 320 320 321 322 322 322 318 312 309 297 298 298 304 305 303 303 300 299 297 295 292 288 286 285 283 283 283 284 287 291 289 287 289 290 290 293 294 297 298 299 303
318 318 319 320 320 320 319 316 307 304 304 296 295 293 296 302 305 302 304 300 298 294 288 290 287 284 285 288 289 288 287 285 288 290 289 289 287 290 290 289 291 291 291 292 294
317 318 319 319 320 320 317 306 303 303 295 300 299 299 299 302 297 300 302 295 293 288 290 287 284 289 291 289 287 286 284 283 287 290 289 286 288 290 289 291 291 292 291 292 292
316 317 318 319 319 317 311 306 307 306 293 296 298 298 299 300 295 296 299 295 291 287 287 285 289 291 290 287 286 283 283 283 286 287 287 285 285 286 290 290 292 292 294 294 294
313 317 318 319 313 313 307 307 307 301 288 289 293 297 300 299 293 301 300 296 291 288 288 287 291 290 287 286 287 283 287 286 286 284 280 282 278 282 285 288 289 293 292 295 293
312 317 318 318 312 307 307 307 306 298 276 291 293 302 300 294 295 295 299 295 288 288 287 285 286 286 286 286 288 286 288 287 285 282 279 279 278 281 282 285 288 292 292 293 292
315 317 317 315 313 311 307 305 301 285 275 287 293 293 293 293 294 295 296 296 294 289 287 287 289 289 289 289 289 288 286 285 282 280 277 280 280 280 283 287 286 288 289 290 291
316 317 316 315 306 309 306 300 284 277 289 284 287 291 291 288 289 293 291 288 286 281 281 284 285 287 289 287 287 285 282 276 276 275 276 278 277 284 286 286 287 289 289 288 290
316 316 315 313 311 308 302 290 278 283 284 289 289 290 286 290 288 289 289 287 288 285 281 281 279 286 288 288 285 283 284 277 272 273 276 279 277 283 287 288 288 287 288 289 291
316 314 311 311 309 307 295 282 281 285 287 287 288 285 284 289 287 287 288 288 288 286 282 281 280 286 288 289 290 285 282 284 278 268 274 277 280 286 286 287 287 288 289 290 292
311 309 306 310 310 302 290 284 284 290 290 290 282 286 282 285 284 285 286 290 288 289 290 286 281 286 288 289 289 287 289 282 280 270 270 276 276 281 283 286 287 289 289 290 291
309 300 305 310 307 296 284 284 287 291 293 288 284 284 285 285 284 284 285 287 291 288 288 287 285 283 286 285 284 284 283 282 282 280 274 271 277 283 287 287 288 288 289 290 291
296 286 301 308 291 292 286 287 292 291 293 290 290 287 286 287 284 285 283 286 293 290 287 288 286 281 282 285 288 286 286 286 282 277 277 277 278 283 285 286 287 288 288 290 291
285 286 297 303 285 286 290 288 291 290 291 289 288 289 290 288 284 287 287 291 292 291 288 289 283 278 281 284 285 283 283 284 283 281 278 275 279 287 286 287 287 287 287 290 291
288 284 286 295 289 290 287 286 285 293 291 292 290 291 289 288 289 286 288 291 292 292 295 294 285 283 280 282 285 282 284 285 285 280 280 280 280 283 284 286 288 288 286 288 290
286 283 286 285 287 291 290 288 285 287 291 293 290 290 288 285 285 285 289 290 290 294 292 290 281 282 282 284 286 285 284 285 284 286 281 284 282 284 285 286 287 287 288 289 290
285 284 287 289 290 290 290 286 286 288 289 288 287 290 290 286 287 284 288 287 288 289 290 288 277 282 281 283 284 283 284 286 286 286 286 284 283 287 286 286 286 290 289 289 289
291 292 290 289 288 288 287 287 287 290 291 292 291 289 289 290 293 292 294 293 292 289 288 285 280 276 278 281 283 279 284 284 286 287 287 282 288 288 285 286 288 289 289 290 291

GFSSW_sfc_thetae_132.txt.gz
Theta_e
321 322 321 322 325 327 328 329 330 329 327 326 329 326 325 324 324 317 313 323 320 328 319 307 308 307 307 304 304 300 293 288 291 292 294 295 296 295 298 300 303 307 311 313 325
320 321 321 320 320 326 327 328 329 329 329 328 327 325 323 324 311 308 321 332 332 328 307 305 305 303 300 302 301 298 291 292 294 295 294 296 295 296 298 301 304 308 313 321 327
320 320 320 321 321 325 326 327 328 328 328 327 326 325 324 320 302 302 324 329 332 322 307 306 305 304 300 301 299 297 293 295 295 296 297 295 293 296 297 297 301 307 313 321 324
319 319 320 320 320 321 326 326 327 327 327 326 325 324 322 311 301 302 324 328 333 315 310 304 303 300 297 297 300 295 298 295 296 296 297 295 295 294 297 297 299 309 318 322 322
318 319 319 319 319 320 325 326 327 327 326 326 324 323 312 301 300 308 326 329 320 309 307 304 299 299 296 296 297 296 295 296 295 295 296 296 294 293 296 296 302 317 318 320 322
317 317 318 318 318 319 324 326 326 326 326 325 324 321 303 295 307 313 319 316 309 304 304 305 302 305 302 300 298 294 296 293 294 293 294 294 293 293 294 301 311 316 315 316 320
316 317 318 318 317 319 321 325 326 325 325 325 323 310 301 301 309 315 315 309 306 304 300 303 305 305 306 303 307 299 291 292 291 292 292 294 290 293 292 301 310 312 313 315 316
315 316 318 318 318 319 321 323 324 324 325 324 321 307 299 307 311 310 306 305 303 303 302 304 305 301 302 299 297 291 290 287 290 293 291 292 289 293 294 301 305 309 310 313 316
313 315 317 318 318 319 321 323 323 324 324 323 310 303 297 313 307 309 305 303 301 300 299 303 301 295 295 291 288 289 284 285 289 292 291 291 291 291 291 297 299 306 309 311 313
312 313 316 318 318 318 321 322 323 323 320 313 310 299 300 298 303 305 303 305 300 298 296 295 291 287 285 285 282 284 283 284 287 290 289 288 291 291 290 292 295 297 304 307 310
312 311 314 318 318 319 319 316 311 307 306 297 297 294 297 301 305 301 302 299 297 294 288 289 286 283 285 286 287 286 286 285 286 289 288 288 288 291 290 288 289 291 293 298 303
312 311 314 318 319 318 317 308 310 307 297 299 299 298 299 303 297 300 302 294 292 287 288 286 284 288 289 288 286 284 284 282 286 289 288 285 288 290 289 290 291 291 290 292 295
309 310 311 318 318 315 312 309 311 310 296 296 298 298 297 299 295 296 298 294 290 287 287 285 288 290 289 285 285 282 282 282 284 285 286 284 285 287 289 289 290 291 292 292 294
308 310 310 318 312 313 309 310 311 308 290 289 293 297 299 299 294 300 299 295 290 287 288 286 289 289 286 285 286 281 286 285 285 283 280 282 278 283 285 288 288 292 291 294 295
307 309 310 317 312 308 311 309 309 301 280 291 293 302 299 295 295 296 299 294 288 287 288 286 287 286 285 286 288 285 286 285 283 280 279 278 278 282 282 284 287 291 293 295 295
307 309 310 315 314 313 310 308 304 285 277 286 293 292 292 293 293 295 295 295 293 289 287 287 289 289 289 287 288 287 285 283 280 279 275 279 279 279 281 287 288 288 289 290 291
306 308 308 316 307 315 307 301 284 279 288 284 287 291 290 288 290 293 291 288 286 282 281 283 284 286 288 285 286 284 282 276 275 274 275 277 276 283 286 287 286 287 288 288 288
305 306 309 316 316 310 302 293 281 284 285 289 289 290 286 289 288 290 289 286 288 285 282 281 279 285 287 286 283 283 283 277 272 272 276 279 276 282 287 288 288 288 288 289 289
305 305 308 314 312 307 297 285 283 285 288 286 288 285 284 288 288 288 288 287 289 285 283 280 280 286 287 287 289 283 280 284 277 267 273 276 279 284 287 286 287 287 288 289 290
297 306 308 312 309 303 292 288 283 291 290 289 283 287 283 286 284 286 286 290 288 288 287 285 281 285 286 287 286 285 287 281 279 272 271 275 276 279 283 286 286 286 288 288 289
296 301 309 309 307 295 285 286 286 291 292 288 284 284 285 285 285 285 286 287 290 287 287 286 284 282 286 284 282 283 281 281 282 279 274 272 276 282 285 285 286 286 287 288 290
297 289 307 307 292 291 288 286 291 290 292 289 289 287 286 287 284 285 284 286 291 289 286 287 284 279 281 285 287 284 284 285 282 276 277 277 279 283 284 284 285 286 287 289 290
285 286 305 304 285 285 291 288 289 289 290 289 287 289 290 288 284 286 286 291 292 290 288 289 282 276 280 284 284 283 282 284 282 281 277 275 279 285 285 285 288 287 286 289 290
285 284 291 296 293 290 287 284 285 293 289 290 289 290 289 287 288 286 286 290 292 292 295 293 285 282 279 281 284 282 283 284 284 280 279 280 279 285 285 287 287 288 287 286 289
285 284 288 284 287 291 290 286 286 286 289 291 288 289 288 284 285 285 288 288 290 294 292 290 283 281 280 282 285 284 284 284 284 286 282 286 282 284 286 287 287 287 287 287 288
284 286 288 288 291 290 289 286 286 286 288 287 287 289 290 285 287 283 286 285 285 287 288 287 277 282 276 282 282 281 284 286 286 287 286 287 283 285 288 285 286 288 288 288 289
288 293 293 290 288 287 287 286 287 290 289 290 290 287 286 288 290 292 293 292 291 289 287 285 279 276 271 280 281 278 283 284 285 288 287 283 287 286 285 286 286 287 287 289 290

GFSSW_sfc_thetae_135.txt.gz
Theta_e
321 321 321 321 321 322 321 327 328 329 328 328 328 328 327 325 325 319 312 322 318 327 319 308 311 311 310 305 305 304 294 291 294 293 295 297 298 299 302 307 307 311 312 316 328
320 321 320 320 321 321 322 324 327 328 327 326 326 326 325 324 312 310 322 332 331 329 307 306 304 305 301 302 303 299 294 294 298 297 296 297 298 298 301 304 305 312 317 323 327
318 321 321 320 320 321 321 322 326 327 327 325 325 324 322 318 305 303 326 333 333 324 311 306 306 304 300 302 300 299 294 297 297 298 299 297 296 299 299 299 303 308 314 321 324
317 319 320 320 320 321 321 319 325 326 327 326 325 324 320 312 302 310 326 331 332 310 307 305 303 301 301 298 300 296 297 297 298 298 298 297 297 297 299 301 302 309 318 321 322
316 318 318 318 319 320 320 321 322 326 327 326 325 322 313 302 303 309 323 330 320 309 305 303 302 299 296 297 298 297 297 297 297 297 297 297 296 296 298 299 305 314 319 320 322
316 316 317 317 318 319 319 320 320 324 326 326 324 319 307 300 311 315 320 322 315 310 306 304 301 302 300 299 297 297 296 295 296 296 296 295 296 296 297 306 312 315 317 320 322
316 315 316 317 317 318 319 318 318 324 326 326 323 314 304 309 312 316 319 314 307 306 304 306 306 305 305 303 305 302 294 294 294 295 294 295 294 294 297 305 311 313 314 316 320
314 314 315 316 317 318 318 319 319 323 326 325 322 310 302 311 315 311 308 305 304 305 308 310 307 308 306 305 303 296 292 289 292 293 293 295 291 296 297 301 305 311 312 314 316
313 313 314 315 316 317 318 318 319 323 326 324 312 306 299 314 306 308 307 302 301 300 302 303 302 298 295 292 288 292 287 287 290 292 293 293 293 295 295 299 299 306 310 313 314
312 312 312 314 315 317 318 318 319 323 322 317 310 301 301 298 304 303 303 303 299 297 296 296 293 290 289 290 284 283 286 287 287 290 291 290 292 293 293 294 297 298 306 310 312
310 311 312 312 314 317 316 313 309 309 309 300 299 297 299 301 307 301 301 299 297 294 288 290 287 284 286 288 288 287 288 286 288 290 289 289 289 292 292 291 292 293 295 303 309
310 310 312 312 313 317 315 305 309 309 300 301 302 298 300 303 297 299 302 295 292 287 288 286 284 288 290 288 287 285 285 285 287 289 289 287 289 292 291 292 293 293 293 294 298
309 309 309 310 311 313 310 306 315 312 297 296 301 297 297 301 297 296 299 294 291 287 286 285 288 290 289 285 285 283 283 283 285 286 286 285 285 288 291 291 292 292 294 295 296
308 309 309 310 305 310 306 311 315 312 291 289 294 298 298 299 294 300 298 295 289 287 287 286 288 288 286 284 285 282 286 285 285 284 281 284 279 284 287 289 290 293 293 294 295
307 307 308 310 305 306 310 314 314 305 280 291 293 303 299 298 296 296 298 294 287 287 288 285 286 286 285 286 287 285 286 285 284 282 279 279 279 281 283 285 288 291 293 296 297
306 307 307 306 306 308 314 313 307 286 279 286 294 292 292 293 293 295 295 295 292 289 287 286 289 289 289 286 288 286 284 283 280 280 276 280 280 279 282 286 289 291 292 294 293
306 305 304 307 300 314 313 304 287 282 286 284 287 291 292 288 290 293 290 287 285 281 280 283 283 285 287 284 285 284 282 277 276 275 276 278 277 283 286 286 288 289 290 290 290
304 304 304 305 308 313 306 294 282 283 284 289 290 291 287 290 288 291 289 286 287 285 281 282 279 284 287 285 283 283 284 278 272 272 275 278 277 283 287 287 289 288 288 289 290
304 301 300 303 308 309 298 284 285 286 288 287 290 287 285 288 288 289 288 287 287 286 283 282 280 286 287 287 289 283 281 285 277 267 273 277 280 284 287 286 286 287 288 288 289
298 296 297 306 309 305 292 287 286 290 289 290 285 289 284 285 285 286 286 290 288 287 288 285 281 285 287 288 287 286 288 282 279 272 270 275 277 280 284 286 286 286 287 288 289
295 290 300 308 308 296 284 288 286 291 293 289 286 284 287 285 287 285 286 287 288 286 287 286 284 282 286 284 283 283 281 282 282 280 274 271 277 282 284 286 286 286 288 288 289
292 285 305 308 292 289 286 288 292 290 293 289 289 287 287 288 285 286 284 288 291 289 285 286 284 280 282 285 286 285 285 284 280 276 276 276 278 284 284 285 286 286 287 288 289
284 286 306 304 285 284 290 289 291 290 290 288 287 288 290 288 283 285 286 291 291 290 288 288 282 277 280 284 284 282 282 284 282 281 277 276 279 284 284 286 288 289 287 288 289
285 283 290 298 293 289 288 287 287 292 288 289 287 290 289 287 288 285 286 290 291 291 295 293 285 282 278 281 284 282 283 284 284 280 279 281 280 282 285 285 287 288 289 288 290
284 282 286 286 287 291 291 288 286 286 289 290 287 289 288 283 284 283 287 287 290 294 291 290 282 282 281 283 286 284 284 284 285 286 282 284 282 285 288 286 287 287 289 289 289
283 283 287 289 289 291 291 288 286 287 288 286 286 289 289 285 286 282 285 284 287 287 287 287 277 281 277 281 283 281 284 285 286 286 286 285 282 284 287 285 286 289 289 289 290
288 288 290 290 288 288 288 288 288 289 288 291 289 288 287 287 290 291 292 291 290 289 288 285 279 277 272 280 281 277 283 283 285 286 286 283 286 287 286 286 288 289 288 288 289

GFSSW_sfc_thetae_138.txt.gz
Theta_e
319 321 322 323 322 322 321 322 322 325 327 329 329 328 324 328 327 321 317 322 321 328 321 318 316 312 312 309 308 309 304 303 302 301 304 306 306 305 309 311 315 318 316 321 332
316 318 320 323 323 321 321 322 323 322 325 328 328 327 326 325 315 315 327 332 330 329 313 315 312 310 305 306 308 305 304 303 304 304 303 305 308 306 307 310 311 315 321 328 330
316 316 318 321 323 322 321 321 322 321 323 326 327 326 324 315 306 311 329 333 331 324 315 316 315 311 306 305 302 302 302 303 303 303 303 303 304 307 306 306 311 312 318 325 325
317 318 316 320 321 322 321 321 320 321 321 325 326 324 319 314 299 316 328 331 331 318 312 312 312 309 306 303 304 300 302 302 303 302 302 302 303 303 306 309 309 315 322 325 324
315 316 317 319 320 321 321 319 319 320 319 324 325 321 315 306 308 320 323 330 326 311 313 310 310 309 306 306 303 303 301 302 301 301 302 301 302 303 304 308 309 314 322 324 326
314 315 316 317 319 320 320 320 321 321 319 323 325 321 312 304 317 317 315 326 321 310 313 311 309 310 308 306 306 305 301 300 299 300 301 300 300 301 304 308 311 316 319 323 325
314 315 316 317 318 319 319 319 319 320 320 323 325 319 311 309 313 315 316 322 316 314 309 315 313 312 309 303 307 301 300 298 297 296 298 302 297 298 304 308 310 314 318 321 324
314 314 315 316 317 317 317 318 319 318 320 320 323 315 306 312 317 315 311 308 313 316 314 313 315 311 310 310 306 299 296 293 295 295 297 299 297 303 303 306 307 312 316 320 322
313 314 315 315 316 316 317 316 318 318 319 321 315 311 301 314 310 313 308 310 308 308 309 308 310 303 308 304 298 297 293 295 295 299 298 299 298 304 302 303 304 310 315 318 320
312 313 313 313 314 316 316 315 317 317 317 320 316 304 302 302 309 310 307 306 304 304 300 299 297 297 294 302 290 294 295 296 298 298 296 296 298 301 299 301 304 306 312 316 318
312 312 312 312 313 313 313 310 306 303 307 306 302 306 302 309 310 306 305 301 301 304 293 295 294 291 295 302 303 302 302 300 298 297 296 296 297 301 300 298 300 303 306 312 316
312 311 311 312 313 313 311 302 305 308 301 309 305 308 305 307 298 302 306 297 300 294 294 293 292 300 298 296 295 297 298 298 294 294 295 295 295 299 300 299 301 301 304 306 311
310 311 310 310 311 309 305 304 313 313 300 298 304 301 300 306 298 298 302 300 296 291 293 294 296 296 294 292 292 292 293 292 294 292 294 293 293 295 299 299 301 301 303 303 305
310 309 309 309 303 306 302 309 313 311 289 290 298 298 299 305 296 303 305 300 295 292 293 293 293 292 293 291 293 288 293 292 290 291 289 291 290 295 297 297 296 300 302 302 302
308 308 309 309 304 302 304 311 312 305 279 291 296 305 300 301 296 296 301 299 291 291 293 290 290 291 290 292 294 291 292 292 290 290 288 288 287 293 291 293 296 298 302 303 304
306 307 308 306 306 306 308 312 307 285 280 287 294 292 294 298 297 297 296 298 297 293 294 290 294 294 294 291 294 291 291 290 289 289 283 288 287 290 292 293 297 301 302 303 305
306 307 306 306 300 309 308 305 284 281 287 284 286 291 294 293 292 293 292 290 289 287 287 288 289 291 293 290 291 292 290 284 282 282 282 284 284 290 295 296 296 299 301 301 302
305 306 305 304 306 306 302 293 280 284 285 290 291 291 290 292 292 292 292 289 291 294 290 286 283 289 292 292 289 290 291 285 278 279 284 282 283 290 296 298 297 297 297 297 298
305 303 301 303 306 305 293 283 284 286 289 288 291 288 287 291 289 289 289 290 292 294 289 287 284 290 290 291 293 288 286 291 282 276 282 286 288 292 296 295 294 295 296 297 298
299 296 296 304 305 300 287 284 287 293 293 292 287 290 284 288 288 288 288 293 292 292 295 290 283 288 289 292 291 290 292 284 285 280 279 282 283 288 292 293 293 294 296 298 298
296 289 299 302 304 293 283 285 290 293 295 292 291 289 289 289 291 289 288 293 294 290 292 293 288 285 288 286 287 287 287 287 289 286 282 280 285 293 291 293 293 295 294 296 297
294 284 303 304 289 288 285 289 294 292 297 293 296 296 292 292 291 290 288 293 296 293 289 291 288 283 285 289 289 289 289 289 284 280 282 281 285 290 292 292 292 295 294 295 296
285 287 302 302 284 285 290 290 290 291 293 293 293 296 295 291 286 292 291 295 296 293 291 291 287 282 282 287 288 287 287 290 290 287 282 284 287 290 291 292 293 294 296 294 296
287 283 288 296 294 289 288 287 286 294 293 293 294 295 293 290 291 288 289 292 295 294 295 294 288 287 282 285 287 284 286 289 289 285 284 285 289 290 290 292 294 295 295 295 297
286 284 287 285 287 290 291 289 286 287 291 293 292 293 292 289 288 288 290 289 292 295 293 293 287 286 285 288 289 288 286 286 286 288 285 288 287 292 293 293 295 296 295 294 295
285 284 287 287 291 289 291 288 287 289 290 289 291 293 294 290 291 286 290 290 289 292 291 290 286 285 282 285 288 286 288 288 288 289 289 290 288 293 297 297 293 294 294 294 295
290 290 288 288 287 288 288 289 289 292 292 294 294 293 292 294 295 293 295 294 293 291 290 288 285 286 282 283 286 283 286 288 289 291 290 286 291 293 292 292 294 295 294 294 295

GFSSW_sfc_thetae_144.txt.gz
Theta_e
319 319 319 319 321 323 324 324 324 324 324 324 327 329 329 326 322 320 316 323 320 332 325 315 313 311 313 310 312 311 303 301 305 306 305 306 303 306 309 309 310 314 314 322 330
319 320 318 318 321 323 324 325 324 324 324 323 326 328 326 323 317 314 327 328 331 331 316 311 309 308 306 307 307 303 304 306 311 308 306 306 304 305 304 306 307 312 320 328 328
319 319 319 318 320 321 323 324 324 323 323 323 323 327 325 323 311 313 328 328 327 327 321 316 312 308 306 305 306 304 304 312 307 305 303 306 304 307 303 303 308 310 317 325 325
318 318 319 319 319 319 321 323 323 323 323 321 322 326 323 319 298 315 329 329 328 325 322 314 309 307 305 305 307 302 309 311 311 305 303 302 305 302 304 303 309 311 320 325 322
317 317 318 319 319 318 318 320 323 322 322 322 321 324 319 310 309 318 324 326 325 321 316 312 306 309 304 309 308 303 310 312 308 303 303 304 302 302 303 306 305 310 320 324 322
316 317 317 317 318 318 317 317 322 322 322 320 320 323 314 303 320 318 317 320 321 318 316 316 307 313 309 310 309 308 311 312 303 302 302 300 300 301 303 305 306 309 317 321 322
316 316 316 317 317 317 316 317 320 321 321 321 320 318 310 307 322 318 318 317 320 320 315 318 314 306 312 309 314 307 301 302 300 300 299 300 297 297 302 304 304 306 315 318 321
316 316 316 316 316 316 316 317 320 320 320 320 320 313 302 318 323 317 317 314 317 319 317 318 317 309 308 313 308 303 302 294 299 299 298 298 295 301 303 302 302 304 308 315 318
315 315 315 315 315 316 317 318 319 319 319 319 313 309 300 319 313 317 317 311 314 314 312 315 312 305 308 302 299 299 294 297 301 301 298 295 295 304 307 301 301 303 306 311 314
314 314 314 314 315 316 317 317 317 316 315 314 312 303 305 303 313 314 315 314 308 308 308 306 304 297 302 299 291 294 297 299 299 303 300 294 295 304 303 300 300 301 304 307 312
314 313 313 314 315 314 314 310 303 300 304 298 299 300 303 310 316 310 312 309 306 304 299 300 294 289 297 302 305 303 300 298 302 302 297 297 299 299 303 298 298 299 302 305 310
313 313 313 314 314 315 312 302 301 306 294 302 302 304 307 309 303 308 312 304 302 295 299 293 288 294 300 303 303 302 298 299 297 298 297 297 297 300 301 299 298 300 300 303 306
312 312 313 314 314 311 306 305 311 310 295 297 301 299 302 304 300 303 307 305 300 293 293 290 295 297 297 299 301 302 299 299 296 294 293 291 291 295 301 302 299 300 302 303 305
312 312 313 313 306 307 303 309 311 310 287 288 293 299 302 303 297 307 309 305 298 293 292 290 294 295 296 296 303 298 305 303 294 290 287 292 285 295 298 299 299 299 299 299 302
311 312 313 312 305 302 305 310 309 303 274 292 295 307 303 297 300 301 310 304 295 294 292 289 292 292 294 297 304 300 298 297 293 289 287 287 283 288 295 296 297 298 299 299 300
311 312 312 308 307 307 310 310 304 283 273 286 296 296 294 296 298 301 303 306 303 294 295 292 295 293 298 298 304 296 293 292 289 288 280 286 285 285 289 296 298 299 299 301 301
311 311 309 308 300 309 309 301 283 276 288 284 287 291 293 291 293 297 295 294 290 285 284 286 288 293 296 292 293 293 290 280 281 279 279 283 284 287 293 295 296 297 298 300 301
310 310 308 307 308 308 303 290 276 281 283 291 289 290 289 292 293 294 293 290 294 294 287 284 281 288 294 292 289 290 292 282 276 277 279 280 279 286 294 297 296 297 294 295 294
309 305 302 305 308 305 293 277 275 283 289 287 289 286 287 291 290 292 291 291 293 295 289 287 287 291 294 297 294 289 287 290 281 275 278 281 285 291 293 293 293 293 294 293 294
301 299 298 306 306 300 287 279 282 290 292 291 283 288 285 285 286 287 289 294 293 297 298 293 283 291 291 294 295 292 293 284 283 273 273 279 279 283 289 291 292 292 292 294 295
298 290 299 305 303 292 280 281 284 291 293 290 288 287 288 286 288 287 289 292 296 296 298 293 286 284 288 286 287 287 287 287 286 284 279 276 279 287 289 289 289 290 292 291 292
294 285 300 303 286 286 281 284 290 289 293 290 289 287 290 288 288 287 287 291 298 298 292 294 287 281 283 288 289 291 289 289 282 280 280 281 281 287 289 289 290 291 291 292 293
286 288 300 298 279 280 285 284 287 286 287 290 288 291 294 290 286 292 292 297 297 296 291 292 285 279 281 286 287 286 289 291 288 284 280 278 281 288 288 287 290 290 291 293 294
289 283 288 291 290 284 282 282 282 288 288 292 290 291 287 290 293 290 292 296 297 297 296 295 288 286 280 283 286 283 287 289 288 280 281 283 284 285 288 289 289 290 291 293 295
289 284 286 281 283 286 284 283 282 282 288 292 289 289 288 286 290 289 293 293 295 296 293 293 284 286 285 289 289 286 286 287 287 288 284 285 285 289 290 290 291 292 292 293 294
285 285 287 285 288 284 287 282 282 284 288 287 287 290 291 286 291 289 292 291 290 291 291 292 282 284 280 285 287 284 287 288 288 289 288 288 288 292 293 291 289 291 292 292 292
293 292 289 286 285 284 283 285 284 286 288 290 290 289 289 290 297 298 298 296 295 291 290 289 284 282 276 282 284 278 285 287 288 290 289 285 289 290 290 291 291 292 292 292 293

GFSSW_sfc_thetae_147.txt.gz
Theta_e
318 319 318 319 320 320 321 323 324 324 324 323 324 328 327 326 326 321 317 322 321 332 324 313 315 312 310 306 309 310 300 296 300 302 302 303 301 303 306 309 308 313 314 319 329
320 320 319 319 320 320 321 323 324 324 323 324 323 326 326 325 318 315 326 331 330 330 317 310 311 312 306 306 306 303 301 300 307 304 301 303 302 303 304 305 306 317 323 327 328
320 320 320 320 320 320 321 323 324 323 322 323 323 323 326 324 312 312 329 331 329 327 321 316 315 311 304 305 305 302 302 308 309 302 301 303 302 304 302 300 306 313 319 323 322
319 319 319 320 320 318 319 321 323 323 322 322 321 323 324 318 298 313 327 332 329 326 320 315 311 307 303 303 306 300 308 308 311 304 301 301 303 302 302 303 308 319 323 322 321
318 318 318 319 319 319 318 319 322 322 322 322 320 323 319 309 308 318 328 330 324 321 318 313 308 307 303 306 308 305 307 312 311 303 301 302 300 301 301 304 303 318 323 321 321
317 317 317 318 319 319 318 317 319 321 322 322 320 323 311 300 318 321 321 323 321 318 316 314 310 310 305 306 306 308 310 311 307 301 300 299 298 299 301 303 306 317 321 321 320
317 317 317 318 318 319 319 317 316 320 321 321 320 316 308 303 317 317 319 318 320 318 314 317 314 309 306 303 313 310 304 308 308 299 298 299 295 296 302 301 302 313 319 321 320
317 316 316 317 317 318 318 316 318 320 320 320 321 310 300 313 316 316 315 313 318 319 318 321 316 311 308 309 306 305 303 295 298 297 297 297 293 298 300 299 299 302 312 319 320
316 316 316 316 316 316 317 316 318 319 319 319 312 308 298 317 311 316 315 311 315 315 316 317 315 308 306 300 294 301 295 292 293 297 295 294 291 299 301 298 298 298 303 314 317
316 315 316 316 316 316 316 316 316 315 314 314 312 301 304 303 311 315 316 315 311 310 308 305 303 301 301 296 286 292 295 294 295 295 294 292 292 297 301 297 298 298 301 307 313
316 315 316 315 316 315 311 306 300 297 302 296 298 298 302 307 314 311 314 309 308 307 299 301 296 292 296 297 295 295 298 296 298 302 294 293 293 296 299 297 296 297 298 303 310
315 315 315 315 315 315 309 298 298 299 292 301 300 301 304 307 301 307 312 304 301 297 301 296 292 298 299 298 296 295 294 296 299 304 297 294 295 300 298 300 298 297 297 300 307
315 315 314 314 314 310 304 301 306 304 291 295 298 297 299 304 298 301 308 304 300 297 297 293 295 300 295 294 294 294 293 297 298 293 293 291 290 294 298 301 298 298 300 301 305
314 314 313 313 306 305 301 307 308 304 280 284 293 297 299 301 295 304 308 303 300 295 296 296 299 296 294 293 296 291 298 297 300 292 286 293 285 292 297 297 299 299 299 300 300
308 313 313 312 301 300 304 308 305 297 264 285 291 303 300 295 295 297 308 302 296 294 293 292 292 293 292 294 298 294 299 298 299 293 287 285 284 287 294 295 298 298 299 299 300
307 312 312 306 304 304 308 307 299 280 269 281 295 294 293 294 294 300 300 303 303 297 294 293 295 297 296 298 300 302 297 293 292 291 286 285 287 283 287 294 297 301 297 299 297
307 312 309 305 298 307 307 300 282 274 281 278 287 293 291 290 292 294 293 292 290 286 285 287 290 295 297 294 298 297 288 281 280 281 283 285 282 288 292 293 297 298 298 297 297
307 311 308 304 307 307 302 288 272 274 277 289 289 290 288 292 291 292 292 289 294 293 288 284 281 289 295 294 291 294 289 283 279 277 278 280 281 286 294 299 294 295 296 295 295
308 307 303 304 308 305 293 279 275 276 285 286 287 283 285 290 291 291 291 291 294 294 288 286 287 292 294 294 294 288 286 293 281 276 278 279 283 289 292 291 292 292 292 292 293
302 301 299 306 307 300 288 279 278 288 291 289 279 282 274 285 286 288 289 294 293 296 298 291 286 291 293 296 295 292 294 284 284 274 273 277 278 283 287 290 291 290 291 292 292
301 291 300 306 304 293 281 281 282 289 292 287 287 283 283 283 286 285 288 292 296 295 298 295 289 285 289 287 287 288 286 286 286 282 276 274 278 286 288 289 289 290 291 291 292
292 284 301 304 288 288 281 282 287 286 290 288 288 287 288 288 285 287 287 291 297 297 292 295 287 282 285 289 293 291 289 288 282 279 280 280 280 286 288 288 289 290 290 291 292
285 288 300 298 281 282 283 283 285 284 285 288 286 289 290 288 286 288 289 296 298 297 294 292 286 278 281 285 287 288 290 290 290 284 279 278 280 286 286 285 288 290 289 291 292
287 284 289 291 285 283 280 281 280 286 285 288 288 291 288 286 289 287 288 294 298 298 299 296 287 287 279 282 285 284 288 289 288 279 279 281 282 283 285 287 288 289 289 291 292
286 283 285 281 280 283 283 281 280 280 284 286 286 286 286 283 285 285 289 292 296 298 297 295 284 287 286 289 289 287 287 287 287 287 283 283 283 285 286 287 289 289 290 291 293
284 284 285 284 284 282 283 278 280 281 282 281 282 286 289 285 286 285 289 290 291 295 291 294 284 284 281 286 288 284 287 288 288 289 287 288 286 290 290 288 288 290 290 291 292
289 289 286 286 281 281 280 280 281 283 284 287 286 286 287 288 292 293 293 292 294 292 290 290 285 285 282 283 284 279 285 287 288 290 289 284 288 290 289 290 290 290 291 291 291